STARLINK-1284, 45390

Orbit data source: Space-Track

STARLINK-1284, 45390 is a payload satellite owned by SpaceX/Seattle (US) in LEO that was launched on Wed, 18 Mar 2020 UTC via an FALCON 9 launch vehicle from the Air Force Eastern Test Range (AFETR). Payloads include a variety of satellites, spacecraft, and rockets equipped with specific instruments for various scientific and technological missions. These include communications satellites like Starlink; space stations such as the ISS; scientific satellites like the Hubble; Earth observation satellites from companies like Planet Labs, Umbra, and HawkEye 360; GPS; miniature CubeSats for education and research; and military/defense satellites.

Loading next visibility...
STARLINK-1284 details
Identifier
45390, 2020-019AG
Orbit
LEO
Last TLE update20 hours ago
Origin
Flag of USSpaceX/Seattle (US)
ManufacturerSpaceX/Seattle
MissionOperational Commercial Communications
Bus & MotorSTARLINK, Unknown motor
Mass260 kg wet, ~248 kg dry
Launch date (UTC)
2020-03-18 (5 years ago)
Launch vehicle
FALCON 9
Launch site
Air Force Eastern Test Range (AFETR)
Object type
Payload
Rocket body
Debris
Shape & HBRBox + 1 Pan, 8.86 m
Radar Cross Section13.562 m², Large (>1 m²)

Expand to show TLE details & history

TLE from 20 hours ago
0 STARLINK-1284
1 45390U 20019AG  24360.60270343  .00021749  00000-0  14747-2 0  9991
2 45390  53.0549 317.7585 0001494  93.1596 266.9563 15.06394282263824
Epoch: 2024-12-25T14:27Z
Definitive object data (Epoch: 2024-12-25T14:27:53.576Z)
Latitude-0.00009°
Longitude6.19111°
Altitude548.163 km
Speed7.589 km/s
True Right ascension21h 11m 02s
True Declination0° 00' 00"
Sunlit
Object was in daylight at TLE epoch
Visualization TLE readout
Latitude27.2016°
Longitude159.88883°
Altitude547.71 km
Speed7.592 km/s
Apparent Right ascension03h 56m 46s
Apparent Declination-15° 40' 34"
Sunlit
Object is in full shadow
Visualization observer readout
Local Sidereal Time09:34:00
Azimuth254.344° W
Elevation-5.747°
Doppler factor1
Orbital elements
Apogee altitude548.534 km
Perigee altitude546.465 km
Semi-major axis6,925.637 km
Eccentricity0.0001494
Inclination53.0549°
RAAN317.7585°
Arg. of periapsis93.1596°
True anomaly266.9392°
Mean anomaly266.9563°
Eccentric anomaly266.94775°
Mean motion3.76577 °/min
BSTAR0.0014747
Orbital period95.6 mins
Loading maneuver chart data...
Loading historical data...
Loading historical data...
Loading historical data...
Loading historical data...
Loading historical data...
Loading historical data...
Loading historical data...

STARLINK-1284 Visibility forecast

Observer location: undefined°, undefined

Span
Click to sort rows by Start time (UTC) header in descending order
Start Az.
Max El. time (UTC)
Max El. Az.
Max El.
End time (UTC)
End Az.
4 mins2024-12-26 22:27:51.543Z154.567° SSE2024-12-26 22:29:51.543Z122.901° SE14.365°2024-12-26 22:31:51.543Z92.794° ESE
6 mins2024-12-27 00:05:51.543Z237.858° WSW2024-12-27 00:08:51.543Z340.726° N43.776°2024-12-27 00:11:51.543Z45.666° ENE
4 mins2024-12-27 01:46:51.543Z305.649° NW2024-12-27 01:48:51.543Z341.316° N18.209°2024-12-27 01:50:51.543Z16.46° NNE
4 mins2024-12-27 05:08:51.543Z351.605° N2024-12-27 05:10:51.543Z34.36° NE21.064°2024-12-27 05:12:51.543Z69.104° E
6 mins2024-12-27 06:47:51.543Z304.083° NW2024-12-27 06:49:51.543Z274.006° WNW42.688°2024-12-27 06:53:51.543Z137.465° SSE
|